Location: Unspecified
(0.0000°N, 0.0000°E)
Time: 15:03:13
(UTC+00:00)

deb Delta 126 - Pass Details

Date: 24 February 2026
Orbit: 1502 x 2092 km, 101.9° (Epoch: 4 March)

Event Time Altitude Azimuth Distance (km) Brightness Sun altitude
Rises 03:57:59 0° 10° (N) 4,746 ? -33.3°
Reaches altitude 10° 04:00:45 10° 7° (N) 3,813 ? -32.6°
Maximum altitude 04:09:42 69° 286° (WNW) 1,822 ? -30.4°
Drops below altitude 10° 04:19:47 10° 204° (SSW) 4,253 ? -27.9°
Sets 04:23:02 0° 201° (SSW) 5,322 ? -27.1°
